Ketchikan, AK

4:32 PM AKST on December 12, 2018 (GMT -0900)
Ketchikan International

Weather History for PAKT - October, 2018

Change the Weather History Date:

Sunday, October 28, 2018

  Actual Average Record
Temperature  
Mean Temperature 49 °F -  
Max Temperature 53 °F 47 °F 59 °F (1958)
Min Temperature 45 °F 36 °F 23 °F (1971)
Degree Days  
Heating Degree Days 16    
Moisture  
Dew Point 41 °F    
Average Humidity 77    
Maximum Humidity 93    
Minimum Humidity 54    
Precipitation  
Precipitation 0.15 in - - ()
Sea Level Pressure  
Sea Level Pressure 29.47 in    
Wind  
Wind Speed 10 mph (SSE)    
Max Wind Speed 17 mph    
Max Gust Speed 30 mph    
Visibility 9 miles    
Events Rain    
Averages and records for this station are not official NWS values.
T = Trace of Precipitation, MM = Missing Value Source: NWS Daily Summary

Daily Weather History Graph

Daily Weather History Graph

Search for Another Location

Airport or City:

Astronomy

Oct. 28, 2018 Rise Set
Actual Time 7:43 AM AKDT 5:16 PM AKDT
Civil Twilight 7:05 AM AKDT 5:54 PM AKDT
Nautical Twilight 6:22 AM AKDT 6:37 PM AKDT
Astronomical Twilight 5:40 AM AKDT 7:19 PM AKDT
Moon 8:14 PM AKDT (10/28) 12:20 PM AKDT (10/28)
Length of Visible Light 10h 49m
Length of Day
9h 32m
Waning Gibbous, 80% of the Moon is Illuminated
Oct 28
Waning Gibbous
Oct 31
Last Quarter
Nov 7
New
Nov 15
First Quarter
Nov 22
Full

Hourly Weather History & Observations

Time (AKDT) Temp. Windchill Dew Point Humidity Pressure Visibility Wind Dir Wind Speed Gust Speed Precip Events Conditions
12:53 AM 52.0 °F - 37.0 °F 57% 29.35 in 10.0 mi ESE 16.1 mph 28.8 mph 0.00 in Rain Light Rain
1:53 AM 52.0 °F - 36.0 °F 54% 29.33 in 10.0 mi ESE 11.5 mph - 0.00 in   Overcast
2:53 AM 53.1 °F - 37.0 °F 55% 29.34 in 10.0 mi SSE 12.7 mph 24.2 mph N/A   Overcast
3:53 AM 52.0 °F - 37.0 °F 57% 29.34 in 10.0 mi SE 11.5 mph 29.9 mph N/A   Overcast
4:53 AM 51.1 °F - 39.0 °F 63% 29.36 in 10.0 mi SSE 11.5 mph 23.0 mph 0.00 in Rain Light Rain
5:53 AM 51.1 °F - 39.9 °F 66% 29.37 in 10.0 mi SSE 16.1 mph 24.2 mph 0.01 in Rain Light Rain
6:04 AM 48.2 °F - 41.0 °F 76% 29.38 in 6.0 mi SSE 8.1 mph 28.8 mph N/A Rain Light Rain
6:53 AM 46.4 °F 42.9 °F 42.8 °F 87% 29.37 in 10.0 mi SSW 6.9 mph - N/A Rain Light Rain
7:53 AM 48.2 °F - 42.8 °F 82% 29.39 in 10.0 mi Variable 6.9 mph - N/A Rain Light Rain
8:53 AM 50.0 °F - 41.0 °F 71% 29.38 in 10.0 mi Variable 5.8 mph - N/A   Mostly Cloudy
9:53 AM 48.2 °F - 42.8 °F 82% 29.39 in 10.0 mi West 3.5 mph - N/A   Mostly Cloudy
10:53 AM 51.8 °F - 39.2 °F 62% 29.42 in 10.0 mi South 6.9 mph - N/A   Overcast
11:53 AM 51.8 °F - 39.2 °F 62% 29.44 in 10.0 mi SSE 17.3 mph - N/A   Overcast
12:53 PM 50.0 °F - 41.0 °F 71% 29.48 in 8.0 mi SSE 11.5 mph - N/A Rain Light Rain
1:53 PM 46.4 °F 42.4 °F 44.6 °F 93% 29.49 in 5.0 mi SSE 8.1 mph - N/A Rain Rain
2:46 PM 46.9 °F - 42.1 °F 83% 29.49 in 2.5 mi SE 13.8 mph 17.3 mph 0.11 in Rain Rain
2:53 PM 46.4 °F 44.3 °F 42.8 °F 87% 29.50 in 6.0 mi Variable 4.6 mph 19.6 mph N/A Rain Rain
3:53 PM 46.4 °F - 44.6 °F 93% 29.50 in 10.0 mi Calm Calm - N/A Rain Light Rain
4:53 PM 48.2 °F - 44.6 °F 87% 29.51 in 10.0 mi South 5.8 mph - N/A Rain Light Rain
5:53 PM 48.2 °F - 44.6 °F 87% 29.52 in 10.0 mi SSE 10.4 mph - N/A Rain Light Rain
6:53 PM 48.2 °F - 42.8 °F 82% 29.52 in 10.0 mi SSE 11.5 mph 21.9 mph N/A Rain Light Rain
7:53 PM 48.2 °F - 42.8 °F 82% 29.54 in 10.0 mi South 8.1 mph - N/A Rain Light Rain
8:53 PM 48.2 °F - 42.8 °F 82% 29.53 in 10.0 mi South 5.8 mph - N/A   Overcast
9:53 PM 48.9 °F - 41.0 °F 74% 29.53 in 10.0 mi SSE 9.2 mph - 0.00 in Rain Light Rain
10:53 PM 46.9 °F - 39.9 °F 77% 29.56 in 4.0 mi SSE 9.2 mph - 0.06 in Rain Rain
11:21 PM 45.0 °F 43.5 °F 42.1 °F 90% 29.58 in 4.0 mi South 3.5 mph - 0.07 in Rain Rain
11:31 PM 45.0 °F 43.5 °F 42.1 °F 90% 29.58 in 6.0 mi South 3.5 mph - 0.08 in Rain Light Rain
11:39 PM 46.0 °F 43.1 °F 43.0 °F 89% 29.59 in 10.0 mi South 5.8 mph - 0.08 in Rain Light Rain
11:46 PM 46.0 °F 43.9 °F 43.0 °F 89% 29.59 in 10.0 mi SSE 4.6 mph - 0.08 in Rain Light Rain
11:53 PM 46.0 °F 43.1 °F 43.0 °F 89% 29.59 in 10.0 mi SE 5.8 mph - 0.08 in   Overcast